Location: Bantega
(52.8423°N, 5.7985°E)
Time: 21:16:46
(UTC+00:00)

Daily predictions for brighter satellites

Satellite Brightness Start Highest point End
(mag) Time Altitude Azimuth Time Altitude Azimuth Time Altitude Azimuth
Cosmos 2263 Rocket 2.4 17:54:11 10° SW 17:59:46 78° WNW 18:05:26 10° NNE
COSMOS 2406 4.1 17:54:59 10° NNW 18:00:03 32° NE 18:05:05 10° ESE
Cosmos 1842 4.5 17:56:51 10° NNW 18:00:36 48° W 18:04:20 10° S
Cosmos 1544 4.5 17:59:28 10° SSW 18:02:59 45° WNW 18:06:30 10° N
Cosmos 1939 Rocket 3.8 17:59:25 10° S 18:03:30 58° W 18:07:37 10° NNW
Cosmos 1707 2.6 17:59:45 10° N 18:03:37 74° ENE 18:07:27 10° SSE
Cosmos 1844 Rocket 3.3 17:59:34 10° S 18:04:29 33° ESE 18:09:26 10° NE
Cosmos 1626 4.0 18:02:41 10° NNE 18:04:49 14° ENE 18:06:56 10° E
NOSS 3-2 (C) 4.1 17:57:55 10° NW 18:05:12 84° NE 18:13:33 10° SE
Cosmos 372 Rocket 4.1 18:01:10 10° S 18:06:17 56° ESE 18:11:23 10° NNE
ATLAS CENTAUR R/B 3.6 18:07:18 10° WNW 18:09:47 16° NNW 18:12:13 10° NNE
Meteor 2-5 Rocket 4.5 18:06:02 10° N 18:11:09 34° ENE 18:16:20 10° SE
ISS -3.3 18:08:15 10° SW 18:11:31 47° SSE 18:14:47 10° E
Cosmos 1844 4.4 18:07:01 10° SSE 18:11:57 31° ESE 18:16:51 10° NE
NOSS 5 (C) 4.4 18:09:01 10° NW 18:12:00 56° NE 18:15:28 10° ESE
Cosmos 2034 Rocket 4.4 18:06:43 10° SSE 18:12:35 42° E 18:18:27 10° NNE
Lacrosse 4 Rocket 3.1 18:10:20 10° NNW 18:13:18 19° NNE 18:16:15 10° ENE
USA 186 3.0 18:11:49 10° ESE 18:14:30 24° ENE 18:17:14 10° N
Cosmos 1898 Rocket 4.4 18:10:37 10° SW 18:15:41 55° WNW 18:20:50 10° NNE
Meteor 1-12 Rocket 4.4 18:10:07 10° S 18:15:50 57° E 18:21:28 10° NNE
Cosmos 1300 Rocket 3.6 18:16:44 10° S 18:21:04 56° E 18:25:25 10° NNE
CENTAUR R/B 3.3 18:16:21 10° NW 18:24:13 87° SW 18:33:00 10° SE
Okean 1 Rocket 4.1 18:20:48 10° SE 18:24:27 25° E 18:28:06 10° NNE
Sich 1 Rocket 3.7 18:20:52 10° S 18:25:24 88° W 18:30:01 10° N
Cosmos 1833 Rocket 3.5 18:20:27 10° NNW 18:25:37 35° NE 18:30:11 13° ESE
NOSS 2-2 (E) 3.4 18:22:18 10° SW 18:25:54 80° NW 18:30:14 10° NE
Cosmos 2298 Rocket 4.1 18:22:20 10° S 18:27:33 59° ESE 18:32:48 10° NNE
Resurs 01 Rocket 3.3 18:25:51 12° E 18:28:11 17° NE 18:31:00 10° NNE
Cosmos 1975 4.5 18:24:53 10° SW 18:28:44 40° WNW 18:32:36 10° N
CSL-04 Debris 4.3 18:26:19 10° SSE 18:31:42 79° WSW 18:37:08 10° NNW
Cosmos 1025 Rocket 3.2 18:28:35 10° NNW 18:33:00 81° W 18:37:24 10° S
CSL-04 Rocket 3.9 18:28:11 10° SSE 18:33:40 80° WSW 18:39:15 10° NNW
Cosmos 1766 4.4 18:32:11 10° SE 18:35:23 24° E 18:38:37 10° NE
Okean 2 Rocket 3.0 18:31:07 10° S 18:35:36 78° E 18:40:04 10° NNE
NOSS 2-2 (D) 3.3 18:32:11 10° SW 18:35:45 81° NW 18:40:00 10° NE
ATLAS 2AS CENTAUR R/B 3.7 18:29:10 10° S 18:35:49 31° ESE 18:42:27 10° NE
Cosmos 1937 Rocket 4.5 18:30:45 10° SW 18:35:50 51° WNW 18:40:56 10° NNE
YAOGAN 1 3.6 18:32:05 10° S 18:36:18 50° W 18:40:32 10° NNW
ATLAS 3B R/B 3.0 18:30:00 10° NW 18:36:42 58° NNE 18:42:35 15° ESE
Abrixas rocket 3.7 18:38:06 10° WSW 18:40:24 22° SSW 18:42:11 13° SSE
CREW DRAGON DEMO-1 DEB 4.3 18:39:28 10° W 18:42:09 29° SSW 18:44:16 14° SSE
Cosmos 1536 Rocket 3.6 18:38:18 10° NNW 18:42:47 86° W 18:47:16 10° S
Cosmos 1513 Rocket 4.5 18:37:02 10° S 18:43:16 88° E 18:49:26 10° N
SPOT 3 Rocket 4.4 18:40:10 15° ESE 18:43:40 31° ENE 18:48:10 10° N
ARIANE 5 R/B 4.4 18:42:31 13° ENE 18:43:50 14° NE 18:46:09 10° NNE
Cosmos 1125 Rocket 3.6 18:43:01 10° S 18:48:12 55° ESE 18:53:25 10° NNE
Cosmos 1892 Rocket 4.5 18:45:38 10° N 18:49:27 29° ENE 18:51:24 20° ESE
Resurs 1-3 4.4 18:48:54 19° ESE 18:51:21 32° ENE 18:55:17 10° N
SJ-6B 2.9 18:48:31 15° SE 18:51:27 49° ENE 18:55:10 10° N
CZ-4 R/B 3.6 18:50:22 10° SSW 18:54:02 29° W 18:57:42 10° NNW
Cosmos 2150 Rocket 4.1 18:49:42 10° SSW 18:55:07 85° ESE 19:00:38 10° NNE
Cosmos 1674 2.7 18:51:20 10° N 18:55:12 89° W 18:59:03 10° S
Cosmos 2026 Rocket 4.2 18:49:31 10° N 18:55:48 55° ENE 19:02:03 10° SSE
Cosmos 1092 Rocket 3.9 18:49:53 10° N 18:56:03 69° ENE 19:02:14 10° SSE
CZ-2C R/B 4.1 18:50:50 10° S 18:56:07 52° W 19:01:42 10° NNW
Cosmos 1464 Rocket 4.1 18:50:29 10° SSW 18:56:38 80° W 19:02:54 10° N
Cosmos 2285 Rocket 4.0 18:52:50 10° S 18:58:59 57° ESE 19:05:13 10° NNE
MOS 1 Rocket 3.0 18:57:13 10° NNE 19:01:39 84° E 19:05:57 10° SSW
FREGAT/IRIS 2.2 19:04:41 46° SE 19:05:12 59° ENE 19:07:47 10° N
TSX-5 4.5 19:06:16 10° S 19:10:00 39° ESE 19:14:44 10° NE
ARGOS 3.6 19:06:19 10° S 19:11:37 62° WSW 19:16:59 10° NNW
CZ-2C R/B 2.8 19:06:20 10° NNE 19:11:49 54° E 19:17:18 10° S
Cosmos 1340 Rocket 3.3 19:15:11 34° ESE 19:15:47 36° E 19:19:29 10° NNE
Cosmos 2279 Rocket 4.5 19:12:59 18° SE 19:16:54 37° E 19:22:34 10° NNE
Cosmos 1733 3.2 19:13:48 11° S 19:17:27 56° E 19:21:13 10° NNE
Cosmos 2151 Rocket 4.3 19:13:55 10° SSW 19:18:20 58° WNW 19:22:49 10° N
Lacrosse 5 rocket 2.0 19:14:16 10° WNW 19:18:34 54° NNE 19:20:43 28° ENE
Cosmos 2082 Rocket 2.6 19:13:23 10° NNW 19:18:48 45° NE 19:21:17 29° ESE
MOS 1 4.3 19:13:16 10° SSE 19:18:59 90° ENE 19:24:45 10° NNW
NOSS 2-2 (C) 4.5 19:17:12 10° WSW 19:20:42 42° NNW 19:24:56 10° NE
DMSP B5D2-2 4.1 19:16:27 10° NNE 19:21:41 55° E 19:26:51 10° S
BREEZE-M R/B 4.0 19:15:16 10° WSW 19:23:36 42° S 19:24:25 36° SE
Spot 2 Rocket 4.5 19:25:14 26° E 19:26:14 28° ENE 19:30:31 10° N
Meteor 1-15 Rocket 4.4 19:23:24 10° SSW 19:29:05 79° WNW 19:34:55 10° NNE
OBJECT-B 0.6 19:28:48 63° SE 19:29:12 74° ENE 19:32:28 10° N
Cosmos 1805 3.3 19:25:28 10° SSW 19:29:22 80° W 19:33:19 10° N
Ariane Rocket 3.4 19:28:26 10° S 19:33:27 62° WSW 19:38:32 10° NNW
H-2A R/B 3.8 19:30:44 10° SSW 19:35:12 31° W 19:39:47 10° NNW
Cosmos 1626 2.4 19:36:49 10° NNW 19:40:30 64° W 19:42:02 32° SSW
Cosmos 1626 Rocket 4.4 19:36:38 10° N 19:40:32 33° ENE 19:40:32 33° ENE
Okean 1-7 Rocket 3.6 19:36:16 10° N 19:40:50 62° ENE 19:41:50 48° SE
Terra 3.6 19:42:51 17° NE 19:42:51 17° NE 19:45:44 10° NNE
Cosmos 2263 Rocket 4.5 19:40:12 10° W 19:44:38 23° NNW 19:49:05 10° NNE
COSMOS 2406 3.4 19:39:11 10° NW 19:44:50 69° WSW 19:47:55 28° SSE
MetOp-A 4.5 19:40:20 14° S 19:45:00 64° WSW 19:50:22 10° NNW
USA 186 3.8 19:42:34 12° SSW 19:45:07 28° W 19:48:02 10° NNW
Cosmos 1455 Rocket 3.5 19:47:18 42° ENE 19:47:18 42° ENE 19:50:48 10° NNE
Cosmos 1844 Rocket 3.4 19:42:41 10° SW 19:48:09 55° NW 19:53:41 10° NNE
ISS -3.5 19:44:49 10° W 19:47:46 62° WSW 19:47:46 62° WSW
SPOT 1/Viking Rocket 4.1 19:48:44 36° ENE 19:49:17 37° ENE 19:54:00 10° N
ATLAS CENTAUR R/B 3.5 19:47:55 10° NNW 19:50:02 14° N 19:51:16 13° NNE
Cosmos 2278 Rocket 2.4 19:51:32 44° SE 19:52:11 46° ESE 19:57:36 10° NE
Lacrosse 4 Rocket 1.1 19:48:32 10° NW 19:52:38 78° NE 19:52:52 74° E
Cosmos 1844 4.3 19:50:13 10° SW 19:55:49 59° NW 20:01:23 10° NNE
Meteor 1-22 Rocket 4.3 19:51:00 10° SSW 19:56:58 89° WNW 20:03:07 10° NNE
Meteor 1-24 Rocket 4.2 19:51:42 10° NNW 19:57:10 59° W 20:01:37 16° S
Cosmos 909 Rocket 4.0 19:51:04 10° NW 19:57:47 81° NE 19:59:55 44° SE
Cosmos 2266 Rocket 4.1 19:53:28 10° N 19:59:24 53° ENE 20:00:34 46° ESE
Exosat Rocket 3.9 19:54:58 10° SW 20:00:05 63° WNW 20:05:12 10° NNE
SL-14 R/B 4.2 19:56:36 10° NNW 20:00:25 46° W 20:01:54 30° SSW
Meteor 2-19 Rocket 4.3 19:55:11 10° N 20:01:21 83° E 20:03:47 39° SSE
Okean 1 Rocket 4.2 19:57:47 10° SSW 20:02:07 45° WNW 20:06:28 10° N
NOSS 3-4 (A) 3.3 19:57:16 10° SW 20:03:13 78° SE 20:09:41 10° NE
NOSS 3-4 (C) 3.3 19:57:22 10° SW 20:03:19 77° SE 20:09:47 10° NE
Resurs 01 Rocket 1.6 20:03:26 64° S 20:04:06 86° WSW 20:08:36 10° NNW
Cosmos 614 Rocket 4.3 20:01:30 10° NNW 20:06:30 46° NE 20:06:44 46° ENE
Cosmos 1833 Rocket 3.0 20:04:19 10° NW 20:09:54 60° WSW 20:11:54 38° S
CZ-2C R/B 3.6 20:05:54 10° NNE 20:09:58 67° ENE 20:09:58 67° ENE
Cosmos 1470 3.9 20:12:29 35° NNE 20:12:29 35° NNE 20:14:49 10° NNE
Cosmos 2251 Rocket 3.4 20:07:24 10° NNW 20:12:50 89° WSW 20:13:44 63° SSE
ERS-1 Rocket 3.6 20:17:40 40° NE 20:17:40 40° NE 20:21:57 10° N
IGS 5A 3.9 20:18:58 54° NNE 20:18:58 54° NNE 20:22:18 10° N
ARIANE 5 R/B 2.7 20:20:05 71° N 20:20:05 71° N 20:24:00 10° NNW
SPOT 3 Rocket 4.2 20:20:50 32° SSW 20:22:53 51° W 20:27:56 10° NNW
ATLAS 2AS CENTAUR R/B 2.9 20:18:08 10° SW 20:26:09 90° ESE 20:34:01 10° NE
ATLAS 3B R/B 3.2 20:20:51 10° NW 20:27:26 52° SW 20:29:50 37° S
Landsat 7 3.8 20:27:59 79° NNE 20:27:59 79° NNE 20:32:31 10° NNW
Meteor 1-21 Rocket 4.2 20:26:45 10° NNW 20:32:34 90° WSW 20:33:16 71° SSE
SPOT 5 3.5 20:33:48 49° NE 20:33:48 49° NE 20:38:27 10° N
Meteor 2-10 4.1 20:34:18 70° NE 20:34:18 70° NE 20:39:09 10° NNE
Cosmos 1655 Rocket 4.1 20:29:47 10° NNW 20:36:03 74° W 20:37:50 49° SSW
Cosmos 1461 3.6 20:35:25 10° NW 20:39:30 61° NNW 20:39:30 61° NNW
CZ-2C R/B 4.4 20:47:00 10° N 20:51:53 33° WNW 20:56:48 10° WSW
Lacrosse 5 rocket 2.8 20:53:30 10° WNW 20:56:20 38° WNW 20:56:20 38° WNW
Cosmos 2082 Rocket 3.0 20:57:38 10° NW 21:02:54 42° WSW 21:03:08 42° WSW
Spot 2 Rocket 4.1 21:05:26 53° WNW 21:05:26 53° WNW 21:09:56 10° NNW
Meteor 2-21 4.4 21:03:33 10° NNW 21:09:42 78° W 21:09:42 78° W
COSMOS 2455 4.4 21:14:36 25° NE 21:14:36 25° NE 21:16:56 10° NE
Terra 3.1 21:21:44 38° NNW 21:21:44 38° NNW 21:24:40 10° NNW
Cosmos 1140 Rocket 4.3 21:17:41 10° NNW 21:21:18 46° NNW 21:21:18 46° NNW
Cosmos 407 Rocket 4.5 21:22:50 10° NNW 21:26:26 44° NW 21:26:26 44° NW
ATLAS CENTAUR R/B 4.1 21:26:39 10° NNW 21:27:26 15° NNW 21:27:26 15° NNW
Lacrosse 4 Rocket 4.2 21:28:16 10° WNW 21:29:10 13° W 21:29:10 13° W
Cosmos 2278 Rocket 3.3 21:33:00 21° WSW 21:36:23 42° NW 21:41:46 10° NNE
Resurs 01 Rocket 4.3 21:41:00 13° W 21:41:18 13° W 21:43:18 10° WNW
USA 229 DEB 4.1 21:41:54 10° NW 21:48:55 59° NNE 21:49:03 58° NE
USA 229 4.1 21:41:59 10° NW 21:49:00 58° NNE 21:49:09 58° NE
NOSS 3-1 (A) 4.2 21:54:13 10° NW 22:01:08 58° NNE 22:01:23 57° NE
Cosmos 2227 Rocket 4.2 22:07:08 10° NNW 22:11:14 20° NNE 22:11:40 20° NE
ATLAS 2AS CENTAUR R/B 3.9 22:10:25 10° W 22:17:59 45° NNW 22:25:19 10° NE
Cosmos 1943 Rocket 4.1 22:24:03 21° NNE 22:24:03 21° NNE 22:25:50 10° NNE
NOSS 3-1 (C) 4.3 22:31:48 10° NW 22:37:24 60° NW 22:37:24 60° NW
CZ-4C R/B 3.8 22:45:17 32° NNE 22:45:17 32° NNE 22:49:11 10° NE
COSMOS 2455 4.2 22:57:43 35° NNW 22:57:43 35° NNW 23:02:55 10° NE
Cosmos 2297 Rocket 3.9 22:52:53 10° NNW 22:56:27 29° NNE 22:56:27 29° NNE
Cosmos 2369 Rocket 4.0 23:10:31 27° NNE 23:10:31 27° NNE 23:13:02 10° NNE
SL-16 R/B 3.8 23:50:37 33° NE 23:50:37 33° NE 23:55:37 10° N
